Location: Azul
(36.7830°S, 59.8500°W)
Time: 23:54:26
(UTC-03:00)

XW-2F - Pass Details

Date: 29 October 2021
Orbit: 497 x 515 km, 97.5° (Epoch: 27 November)

Event Time Altitude Azimuth Distance (km) Brightness Sun altitude
Rises 20:22:30 0° 194° (SSW) 2,665 ? -10.6°
Reaches altitude 10° 20:26:08 10° 230° (SW) 1,759 ? -11.3°
Maximum altitude 20:27:08 11° 246° (WSW) 1,697 ? -11.5°
Drops below altitude 10° 20:28:09 10° 262° (W) 1,750 ? -11.6°
Sets 20:31:44 0° 298° (WNW) 2,617 ? -12.3°
